Data supplied by UK-AIR on 2/5/2024
All Data GMT hour ending 
Status: R =Ratified P=Provisional,P*=As supplied
,,Cardiff Newport Road,,,,,,,,,,,,,,,,,,,,,,,
Date,time,"PM<sub>10</sub> particulate matter (Hourly measured)",status,unit,"Nitric oxide",status,unit,"Nitrogen dioxide",status,unit,"Nitrogen oxides as nitrogen dioxide",status,unit
 
01-01-2024,01:00,15.459,P,ugm-3 (Ref.eq),1.07767,P,ugm-3,3.85050,P,ugm-3,5.50290,P,ugm-3
01-01-2024,02:00,12.561,P,ugm-3 (Ref.eq),1.65018,P,ugm-3,5.62466,P,ugm-3,8.15490,P,ugm-3
01-01-2024,03:00,12.561,P,ugm-3 (Ref.eq),0.80825,P,ugm-3,3.18623,P,ugm-3,4.42553,P,ugm-3
01-01-2024,04:00,17.392,P,ugm-3 (Ref.eq),0.70722,P,ugm-3,2.39636,P,ugm-3,3.48075,P,ugm-3
01-01-2024,05:00,18.358,P,ugm-3 (Ref.eq),1.27973,P,ugm-3,3.35835,P,ugm-3,5.32058,P,ugm-3
01-01-2024,06:00,23.189,P,ugm-3 (Ref.eq),0.67354,P,ugm-3,2.34855,P,ugm-3,3.38130,P,ugm-3
01-01-2024,07:00,19.324,P,ugm-3 (Ref.eq),0.23574,P,ugm-3,6.15251,P,ugm-3,6.51398,P,ugm-3
01-01-2024,08:00,21.256,P,ugm-3 (Ref.eq),0.50516,P,ugm-3,17.32534,P,ugm-3,18.09990,P,ugm-3
01-01-2024,09:00,21.256,P,ugm-3 (Ref.eq),1.21238,P,ugm-3,23.40135,P,ugm-3,25.26030,P,ugm-3
01-01-2024,10:00,14.493,P,ugm-3 (Ref.eq),0.87561,P,ugm-3,14.02245,P,ugm-3,15.36503,P,ugm-3
01-01-2024,11:00,13.527,P,ugm-3 (Ref.eq),2.29004,P,ugm-3,12.50010,P,ugm-3,16.01145,P,ugm-3
01-01-2024,12:00,11.594,P,ugm-3 (Ref.eq),1.95327,P,ugm-3,12.91703,P,ugm-3,15.91200,P,ugm-3
01-01-2024,13:00,15.459,P,ugm-3 (Ref.eq),1.95327,P,ugm-3,8.83958,P,ugm-3,11.83455,P,ugm-3
01-01-2024,14:00,12.561,P,ugm-3 (Ref.eq),5.11892,P,ugm-3,13.73175,P,ugm-3,21.58065,P,ugm-3
01-01-2024,15:00,16.425,P,ugm-3 (Ref.eq),17.64680,P,ugm-3,28.48478,P,ugm-3,55.54283,P,ugm-3
01-01-2024,16:00,10.628,P,ugm-3 (Ref.eq),5.05157,P,ugm-3,13.38750,P,ugm-3,21.13313,P,ugm-3
01-01-2024,17:00,9.662,P,ugm-3 (Ref.eq),6.70174,P,ugm-3,19.85749,P,ugm-3,30.13335,P,ugm-3
01-01-2024,18:00,7.730,P,ugm-3 (Ref.eq),1.38076,P,ugm-3,11.40806,P,ugm-3,13.52520,P,ugm-3
01-01-2024,19:00,6.763,P,ugm-3 (Ref.eq),1.24605,P,ugm-3,7.93496,P,ugm-3,9.84555,P,ugm-3
01-01-2024,20:00,6.763,P,ugm-3 (Ref.eq),1.01031,P,ugm-3,6.05880,P,ugm-3,7.60793,P,ugm-3
01-01-2024,21:00,3.865,P,ugm-3 (Ref.eq),0.77457,P,ugm-3,5.42576,P,ugm-3,6.61343,P,ugm-3
01-01-2024,22:00,4.831,P,ugm-3 (Ref.eq),1.54915,P,ugm-3,4.83480,P,ugm-3,7.21013,P,ugm-3
01-01-2024,23:00,4.831,P,ugm-3 (Ref.eq),0.70722,P,ugm-3,3.24169,P,ugm-3,4.32608,P,ugm-3
01-01-2024,24:00,10.628,P,ugm-3 (Ref.eq),0.43780,P,ugm-3,2.75974,P,ugm-3,3.43103,P,ugm-3
02-01-2024,01:00,22.223,P,ugm-3 (Ref.eq),0.31432,P,ugm-3,1.63965,P,ugm-3,2.12160,P,ugm-3
02-01-2024,02:00,23.189,P,ugm-3 (Ref.eq),0.53883,P,ugm-3,2.10758,P,ugm-3,2.93378,P,ugm-3
02-01-2024,03:00,29.952,P,ugm-3 (Ref.eq),0.20206,P,ugm-3,1.82835,P,ugm-3,2.13818,P,ugm-3
02-01-2024,04:00,26.087,P,ugm-3 (Ref.eq),0.26942,P,ugm-3,2.22233,P,ugm-3,2.63543,P,ugm-3
02-01-2024,05:00,24.155,P,ugm-3 (Ref.eq),0.23574,P,ugm-3,3.01984,P,ugm-3,3.38130,P,ugm-3
02-01-2024,06:00,20.290,P,ugm-3 (Ref.eq),0.30309,P,ugm-3,4.65694,P,ugm-3,5.12168,P,ugm-3
02-01-2024,07:00,9.662,P,ugm-3 (Ref.eq),0.40413,P,ugm-3,8.08223,P,ugm-3,8.70188,P,ugm-3
02-01-2024,08:00,9.662,P,ugm-3 (Ref.eq),0.87561,P,ugm-3,13.27658,P,ugm-3,14.61915,P,ugm-3
02-01-2024,09:00,8.696,P,ugm-3 (Ref.eq),7.20690,P,ugm-3,21.07193,P,ugm-3,32.12235,P,ugm-3
02-01-2024,10:00,4.831,P,ugm-3 (Ref.eq),18.65711,P,ugm-3,32.20650,P,ugm-3,60.81368,P,ugm-3
02-01-2024,11:00,1.932,P,ugm-3 (Ref.eq),1.91960,P,ugm-3,11.82499,P,ugm-3,14.76833,P,ugm-3
02-01-2024,12:00,4.831,P,ugm-3 (Ref.eq),1.48179,P,ugm-3,13.44105,P,ugm-3,15.71310,P,ugm-3
02-01-2024,13:00,7.730,P,ugm-3 (Ref.eq),3.60345,P,ugm-3,18.49196,P,ugm-3,24.01718,P,ugm-3
02-01-2024,14:00,6.763,P,ugm-3 (Ref.eq),1.85224,P,ugm-3,8.79559,P,ugm-3,11.63565,P,ugm-3
02-01-2024,15:00,5.797,P,ugm-3 (Ref.eq),2.52578,P,ugm-3,5.37604,P,ugm-3,9.24885,P,ugm-3
02-01-2024,16:00,9.662,P,ugm-3 (Ref.eq),1.24605,P,ugm-3,4.75256,P,ugm-3,6.66315,P,ugm-3
02-01-2024,17:00,10.628,P,ugm-3 (Ref.eq),0.80825,P,ugm-3,5.57303,P,ugm-3,6.81233,P,ugm-3
02-01-2024,18:00,22.223,P,ugm-3 (Ref.eq),1.14502,P,ugm-3,5.60363,P,ugm-3,7.35930,P,ugm-3
02-01-2024,19:00,26.087,P,ugm-3 (Ref.eq),0.84193,P,ugm-3,6.11809,P,ugm-3,7.40903,P,ugm-3
02-01-2024,20:00,16.425,P,ugm-3 (Ref.eq),0.80825,P,ugm-3,6.31890,P,ugm-3,7.55820,P,ugm-3
02-01-2024,21:00,24.155,P,ugm-3 (Ref.eq),0.50516,P,ugm-3,6.33611,P,ugm-3,7.11068,P,ugm-3
02-01-2024,22:00,21.256,P,ugm-3 (Ref.eq),0.80825,P,ugm-3,6.07028,P,ugm-3,7.30958,P,ugm-3
02-01-2024,23:00,16.425,P,ugm-3 (Ref.eq),0.67354,P,ugm-3,6.07793,P,ugm-3,7.11068,P,ugm-3
02-01-2024,24:00,4.831,P,ugm-3 (Ref.eq),0.60619,P,ugm-3,6.47955,P,ugm-3,7.40903,P,ugm-3
03-01-2024,01:00,16.425,P,ugm-3 (Ref.eq),0.80825,P,ugm-3,8.04270,P,ugm-3,9.28200,P,ugm-3
03-01-2024,02:00,10.628,P,ugm-3 (Ref.eq),0.40413,P,ugm-3,4.50203,P,ugm-3,5.12168,P,ugm-3
03-01-2024,03:00,14.493,P,ugm-3 (Ref.eq),0.40413,P,ugm-3,2.71193,P,ugm-3,3.33158,P,ugm-3
03-01-2024,04:00,20.290,P,ugm-3 (Ref.eq),0.30309,P,ugm-3,2.27014,P,ugm-3,2.73488,P,ugm-3
03-01-2024,05:00,13.527,P,ugm-3 (Ref.eq),0.23574,P,ugm-3,1.82644,P,ugm-3,2.18790,P,ugm-3
03-01-2024,06:00,13.527,P,ugm-3 (Ref.eq),0.23574,P,ugm-3,3.16901,P,ugm-3,3.53048,P,ugm-3
03-01-2024,07:00,12.561,P,ugm-3 (Ref.eq),0.43780,P,ugm-3,5.64379,P,ugm-3,6.31508,P,ugm-3
03-01-2024,08:00,9.662,P,ugm-3 (Ref.eq),0.97664,P,ugm-3,7.85081,P,ugm-3,9.34830,P,ugm-3
03-01-2024,09:00,7.730,P,ugm-3 (Ref.eq),22.29424,P,ugm-3,33.74033,P,ugm-3,67.92435,P,ugm-3
03-01-2024,10:00,7.730,P,ugm-3 (Ref.eq),0.97664,P,ugm-3,9.83981,P,ugm-3,11.33730,P,ugm-3
03-01-2024,11:00,5.797,P,ugm-3 (Ref.eq),1.38076,P,ugm-3,13.19816,P,ugm-3,15.31530,P,ugm-3
03-01-2024,12:00,13.527,P,ugm-3 (Ref.eq),2.69417,P,ugm-3,14.31698,P,ugm-3,18.44798,P,ugm-3
03-01-2024,13:00,17.392,P,ugm-3 (Ref.eq),1.65018,P,ugm-3,8.30981,P,ugm-3,10.84005,P,ugm-3
03-01-2024,14:00,14.493,P,ugm-3 (Ref.eq),1.85224,P,ugm-3,8.84531,P,ugm-3,11.68538,P,ugm-3
03-01-2024,15:00,20.290,P,ugm-3 (Ref.eq),1.24605,P,ugm-3,7.28854,P,ugm-3,9.19913,P,ugm-3
03-01-2024,16:00,16.425,P,ugm-3 (Ref.eq),2.05430,P,ugm-3,8.63494,P,ugm-3,11.78483,P,ugm-3
03-01-2024,17:00,11.594,P,ugm-3 (Ref.eq),1.41444,P,ugm-3,15.03608,P,ugm-3,17.20485,P,ugm-3
03-01-2024,18:00,14.493,P,ugm-3 (Ref.eq),1.41444,P,ugm-3,20.50583,P,ugm-3,22.67460,P,ugm-3
03-01-2024,19:00,16.425,P,ugm-3 (Ref.eq),1.95327,P,ugm-3,21.66863,P,ugm-3,24.66360,P,ugm-3
03-01-2024,20:00,16.425,P,ugm-3 (Ref.eq),1.38076,P,ugm-3,15.68441,P,ugm-3,17.80155,P,ugm-3
03-01-2024,21:00,13.527,P,ugm-3 (Ref.eq),4.20964,P,ugm-3,16.26964,P,ugm-3,22.72433,P,ugm-3
03-01-2024,22:00,11.594,P,ugm-3 (Ref.eq),1.58282,P,ugm-3,15.82211,P,ugm-3,18.24908,P,ugm-3
03-01-2024,23:00,9.662,P,ugm-3 (Ref.eq),0.80825,P,ugm-3,14.97105,P,ugm-3,16.21035,P,ugm-3
03-01-2024,24:00,11.594,P,ugm-3 (Ref.eq),0.57251,P,ugm-3,5.38751,P,ugm-3,6.26535,P,ugm-3
04-01-2024,01:00,14.493,P,ugm-3 (Ref.eq),0.71845,P,ugm-3,3.93720,P,ugm-3,5.03880,P,ugm-3
04-01-2024,02:00,5.797,P,ugm-3 (Ref.eq),0.62864,P,ugm-3,2.68260,P,ugm-3,3.64650,P,ugm-3
04-01-2024,03:00,8.696,P,ugm-3 (Ref.eq),0.50516,P,ugm-3,4.04876,P,ugm-3,4.82333,P,ugm-3
04-01-2024,04:00,10.628,P,ugm-3 (Ref.eq),0.33677,P,ugm-3,3.75998,P,ugm-3,4.27635,P,ugm-3
04-01-2024,05:00,11.594,P,ugm-3 (Ref.eq),0.40413,P,ugm-3,3.95505,P,ugm-3,4.57470,P,ugm-3
04-01-2024,06:00,6.763,P,ugm-3 (Ref.eq),14.27909,P,ugm-3,34.04633,P,ugm-3,55.94063,P,ugm-3
04-01-2024,07:00,13.527,P,ugm-3 (Ref.eq),11.95537,P,ugm-3,40.49336,P,ugm-3,58.82468,P,ugm-3
04-01-2024,08:00,21.256,P,ugm-3 (Ref.eq),124.10011,P,ugm-3,70.42399,P,ugm-3,260.70818,P,ugm-3
04-01-2024,09:00,19.324,P,ugm-3 (Ref.eq),200.37875,P,ugm-3,72.45698,P,ugm-3,379.70010,P,ugm-3
04-01-2024,10:00,20.290,P,ugm-3 (Ref.eq),225.53554,P,ugm-3,65.06134,P,ugm-3,410.87768,P,ugm-3
04-01-2024,11:00,23.189,P,ugm-3 (Ref.eq),136.32490,P,ugm-3,60.67980,P,ugm-3,269.70840,P,ugm-3
04-01-2024,12:00,24.155,P,ugm-3 (Ref.eq),84.19275,P,ugm-3,62.49668,P,ugm-3,191.59043,P,ugm-3
04-01-2024,13:00,19.324,P,ugm-3 (Ref.eq),49.90946,P,ugm-3,58.52633,P,ugm-3,135.05310,P,ugm-3
04-01-2024,14:00,22.223,P,ugm-3 (Ref.eq),54.22013,P,ugm-3,58.33125,P,ugm-3,141.46763,P,ugm-3
04-01-2024,15:00,17.392,P,ugm-3 (Ref.eq),36.20288,P,ugm-3,58.21076,P,ugm-3,113.72108,P,ugm-3
04-01-2024,16:00,21.256,P,ugm-3 (Ref.eq),43.47714,P,ugm-3,56.10701,P,ugm-3,122.77103,P,ugm-3
04-01-2024,17:00,16.425,P,ugm-3 (Ref.eq),31.35338,P,ugm-3,48.93896,P,ugm-3,97.01348,P,ugm-3
04-01-2024,18:00,20.290,P,ugm-3 (Ref.eq),43.40978,P,ugm-3,55.71304,P,ugm-3,122.27378,P,ugm-3
04-01-2024,19:00,26.087,P,ugm-3 (Ref.eq),33.67710,P,ugm-3,53.77950,P,ugm-3,105.41700,P,ugm-3
04-01-2024,20:00,17.392,P,ugm-3 (Ref.eq),14.81792,P,ugm-3,35.30858,P,ugm-3,58.02908,P,ugm-3
04-01-2024,21:00,18.358,P,ugm-3 (Ref.eq),11.82066,P,ugm-3,32.84336,P,ugm-3,50.96813,P,ugm-3
04-01-2024,22:00,6.763,P,ugm-3 (Ref.eq),5.79246,P,ugm-3,22.44510,P,ugm-3,31.32675,P,ugm-3
04-01-2024,23:00,14.493,P,ugm-3 (Ref.eq),4.84950,P,ugm-3,25.13408,P,ugm-3,32.56988,P,ugm-3
04-01-2024,24:00,7.730,P,ugm-3 (Ref.eq),2.96359,P,ugm-3,13.85415,P,ugm-3,18.39825,P,ugm-3
05-01-2024,01:00,4.831,P,ugm-3 (Ref.eq),0.49393,P,ugm-3,7.26495,P,ugm-3,8.02230,P,ugm-3
05-01-2024,02:00,6.763,P,ugm-3 (Ref.eq),1.61650,P,ugm-3,10.31730,P,ugm-3,12.79590,P,ugm-3
05-01-2024,03:00,8.696,P,ugm-3 (Ref.eq),1.58282,P,ugm-3,12.19219,P,ugm-3,14.61915,P,ugm-3
05-01-2024,04:00,10.628,P,ugm-3 (Ref.eq),3.56977,P,ugm-3,19.04085,P,ugm-3,24.51443,P,ugm-3
05-01-2024,05:00,6.763,P,ugm-3 (Ref.eq),2.62681,P,ugm-3,16.45898,P,ugm-3,20.48670,P,ugm-3
05-01-2024,06:00,4.831,P,ugm-3 (Ref.eq),3.06462,P,ugm-3,15.73796,P,ugm-3,20.43698,P,ugm-3
05-01-2024,07:00,4.831,P,ugm-3 (Ref.eq),9.86739,P,ugm-3,31.41281,P,ugm-3,46.54260,P,ugm-3
05-01-2024,08:00,4.831,P,ugm-3 (Ref.eq),25.29150,P,ugm-3,44.95714,P,ugm-3,83.73690,P,ugm-3
05-01-2024,09:00,10.628,P,ugm-3 (Ref.eq),52.90672,P,ugm-3,53.58251,P,ugm-3,134.70503,P,ugm-3
05-01-2024,10:00,8.696,P,ugm-3 (Ref.eq),28.96231,P,ugm-3,44.89785,P,ugm-3,89.30610,P,ugm-3
05-01-2024,11:00,4.831,P,ugm-3 (Ref.eq),12.83098,P,ugm-3,36.46564,P,ugm-3,56.13953,P,ugm-3
05-01-2024,12:00,5.797,P,ugm-3 (Ref.eq),13.16775,P,ugm-3,33.81109,P,ugm-3,54.00135,P,ugm-3
05-01-2024,13:00,9.662,P,ugm-3 (Ref.eq),13.97600,P,ugm-3,35.30666,P,ugm-3,56.73623,P,ugm-3
05-01-2024,14:00,14.493,P,ugm-3 (Ref.eq),17.78151,P,ugm-3,29.76998,P,ugm-3,57.03458,P,ugm-3
05-01-2024,15:00,9.662,P,ugm-3 (Ref.eq),17.10797,P,ugm-3,24.48765,P,ugm-3,50.71950,P,ugm-3
05-01-2024,16:00,13.527,P,ugm-3 (Ref.eq),14.71689,P,ugm-3,31.03796,P,ugm-3,53.60355,P,ugm-3
05-01-2024,17:00,20.290,P,ugm-3 (Ref.eq),30.41042,P,ugm-3,39.69394,P,ugm-3,86.32260,P,ugm-3
05-01-2024,18:00,21.256,P,ugm-3 (Ref.eq),38.66131,P,ugm-3,47.77808,P,ugm-3,107.05793,P,ugm-3
05-01-2024,19:00,15.459,P,ugm-3 (Ref.eq),26.03240,P,ugm-3,39.59449,P,ugm-3,79.51028,P,ugm-3
05-01-2024,20:00,22.223,P,ugm-3 (Ref.eq),35.86611,P,ugm-3,47.29039,P,ugm-3,102.28433,P,ugm-3
05-01-2024,21:00,16.425,P,ugm-3 (Ref.eq),24.58428,P,ugm-3,41.96408,P,ugm-3,79.65945,P,ugm-3
05-01-2024,22:00,22.223,P,ugm-3 (Ref.eq),29.06334,P,ugm-3,48.12424,P,ugm-3,92.68740,P,ugm-3
05-01-2024,23:00,20.290,P,ugm-3 (Ref.eq),29.77056,P,ugm-3,47.58683,P,ugm-3,93.23438,P,ugm-3
05-01-2024,24:00,6.763,P,ugm-3 (Ref.eq),9.26120,P,ugm-3,28.66264,P,ugm-3,42.86295,P,ugm-3
06-01-2024,01:00,11.594,P,ugm-3 (Ref.eq),6.73542,P,ugm-3,23.08770,P,ugm-3,33.41520,P,ugm-3
06-01-2024,02:00,10.628,P,ugm-3 (Ref.eq),4.20964,P,ugm-3,17.96029,P,ugm-3,24.41498,P,ugm-3
06-01-2024,03:00,8.696,P,ugm-3 (Ref.eq),5.21995,P,ugm-3,18.35044,P,ugm-3,26.35425,P,ugm-3
06-01-2024,04:00,9.662,P,ugm-3 (Ref.eq),5.59040,P,ugm-3,20.11950,P,ugm-3,28.69133,P,ugm-3
06-01-2024,05:00,11.594,P,ugm-3 (Ref.eq),3.63713,P,ugm-3,15.25793,P,ugm-3,20.83478,P,ugm-3
06-01-2024,06:00,9.662,P,ugm-3 (Ref.eq),2.76152,P,ugm-3,11.23020,P,ugm-3,15.46448,P,ugm-3
06-01-2024,07:00,8.696,P,ugm-3 (Ref.eq),3.83919,P,ugm-3,17.43435,P,ugm-3,23.32103,P,ugm-3
06-01-2024,08:00,4.831,P,ugm-3 (Ref.eq),6.16291,P,ugm-3,28.63969,P,ugm-3,38.08935,P,ugm-3
06-01-2024,09:00,8.696,P,ugm-3 (Ref.eq),5.08524,P,ugm-3,33.57394,P,ugm-3,41.37120,P,ugm-3
06-01-2024,10:00,9.662,P,ugm-3 (Ref.eq),19.36433,P,ugm-3,43.10584,P,ugm-3,72.79740,P,ugm-3
06-01-2024,11:00,9.662,P,ugm-3 (Ref.eq),24.71899,P,ugm-3,38.97293,P,ugm-3,76.87485,P,ugm-3
06-01-2024,12:00,5.797,P,ugm-3 (Ref.eq),20.50935,P,ugm-3,29.96314,P,ugm-3,61.41038,P,ugm-3
06-01-2024,13:00,3.865,P,ugm-3 (Ref.eq),8.11618,P,ugm-3,20.52304,P,ugm-3,32.96768,P,ugm-3
06-01-2024,14:00,10.628,P,ugm-3 (Ref.eq),17.47842,P,ugm-3,25.66001,P,ugm-3,52.45988,P,ugm-3
06-01-2024,15:00,12.561,P,ugm-3 (Ref.eq),23.47294,P,ugm-3,31.43576,P,ugm-3,67.42710,P,ugm-3
06-01-2024,16:00,17.392,P,ugm-3 (Ref.eq),42.36579,P,ugm-3,54.18113,P,ugm-3,119.14110,P,ugm-3
06-01-2024,17:00,15.459,P,ugm-3 (Ref.eq),31.11764,P,ugm-3,42.28920,P,ugm-3,90.00225,P,ugm-3
06-01-2024,18:00,16.425,P,ugm-3 (Ref.eq),51.82906,P,ugm-3,57.77089,P,ugm-3,137.24100,P,ugm-3
06-01-2024,19:00,17.392,P,ugm-3 (Ref.eq),52.50260,P,ugm-3,59.57246,P,ugm-3,140.07533,P,ugm-3
06-01-2024,20:00,20.290,P,ugm-3 (Ref.eq),38.66131,P,ugm-3,58.22033,P,ugm-3,117.50018,P,ugm-3
06-01-2024,21:00,19.324,P,ugm-3 (Ref.eq),24.78635,P,ugm-3,47.42235,P,ugm-3,85.42755,P,ugm-3
06-01-2024,22:00,9.662,P,ugm-3 (Ref.eq),20.71142,P,ugm-3,34.52636,P,ugm-3,66.28343,P,ugm-3
06-01-2024,23:00,15.459,P,ugm-3 (Ref.eq),16.33339,P,ugm-3,34.97389,P,ugm-3,60.01808,P,ugm-3
06-01-2024,24:00,22.223,P,ugm-3 (Ref.eq),79.00648,P,ugm-3,54.58658,P,ugm-3,175.72815,P,ugm-3
07-01-2024,01:00,22.223,P,ugm-3 (Ref.eq),66.95008,P,ugm-3,52.61925,P,ugm-3,155.27460,P,ugm-3
07-01-2024,02:00,9.662,P,ugm-3 (Ref.eq),46.65401,P,ugm-3,45.88215,P,ugm-3,117.41730,P,ugm-3
07-01-2024,03:00,7.730,P,ugm-3 (Ref.eq),17.31003,P,ugm-3,34.32173,P,ugm-3,60.86340,P,ugm-3
07-01-2024,04:00,7.730,P,ugm-3 (Ref.eq),9.09282,P,ugm-3,27.87660,P,ugm-3,41.81873,P,ugm-3
07-01-2024,05:00,10.628,P,ugm-3 (Ref.eq),23.54029,P,ugm-3,29.14459,P,ugm-3,65.23920,P,ugm-3
07-01-2024,06:00,6.763,P,ugm-3 (Ref.eq),23.30455,P,ugm-3,27.96458,P,ugm-3,63.69773,P,ugm-3
07-01-2024,07:00,5.797,P,ugm-3 (Ref.eq),14.48115,P,ugm-3,32.84145,P,ugm-3,55.04558,P,ugm-3
07-01-2024,08:00,7.730,P,ugm-3 (Ref.eq),20.74509,P,ugm-3,35.22060,P,ugm-3,67.02930,P,ugm-3
07-01-2024,09:00,5.797,P,ugm-3 (Ref.eq),13.87497,P,ugm-3,23.17950,P,ugm-3,44.45415,P,ugm-3
07-01-2024,10:00,8.696,P,ugm-3 (Ref.eq),20.81245,P,ugm-3,29.29950,P,ugm-3,61.21148,P,ugm-3
07-01-2024,11:00,12.561,P,ugm-3 (Ref.eq),17.07429,P,ugm-3,26.67746,P,ugm-3,52.85768,P,ugm-3
07-01-2024,12:00,11.594,P,ugm-3 (Ref.eq),20.34097,P,ugm-3,28.58040,P,ugm-3,59.76945,P,ugm-3
07-01-2024,13:00,21.256,P,ugm-3 (Ref.eq),10.67564,P,ugm-3,20.47714,P,ugm-3,36.84623,P,ugm-3
07-01-2024,14:00,36.716,P,ugm-3 (Ref.eq),12.12376,P,ugm-3,20.64353,P,ugm-3,39.23303,P,ugm-3
07-01-2024,15:00,39.614,P,ugm-3 (Ref.eq),22.76572,P,ugm-3,24.81278,P,ugm-3,59.71973,P,ugm-3
07-01-2024,16:00,28.020,P,ugm-3 (Ref.eq),16.06398,P,ugm-3,28.62439,P,ugm-3,53.25548,P,ugm-3
07-01-2024,17:00,28.986,P,ugm-3 (Ref.eq),18.11828,P,ugm-3,33.08243,P,ugm-3,60.86340,P,ugm-3
07-01-2024,18:00,25.121,P,ugm-3 (Ref.eq),17.20900,P,ugm-3,38.85244,P,ugm-3,65.23920,P,ugm-3
07-01-2024,19:00,25.121,P,ugm-3 (Ref.eq),16.93958,P,ugm-3,34.98919,P,ugm-3,60.96285,P,ugm-3
07-01-2024,20:00,23.189,P,ugm-3 (Ref.eq),6.83645,P,ugm-3,19.55149,P,ugm-3,30.03390,P,ugm-3
07-01-2024,21:00,14.493,P,ugm-3 (Ref.eq),5.92717,P,ugm-3,22.03965,P,ugm-3,31.12785,P,ugm-3
07-01-2024,22:00,16.425,P,ugm-3 (Ref.eq),3.70448,P,ugm-3,16.64640,P,ugm-3,22.32653,P,ugm-3
07-01-2024,23:00,18.358,P,ugm-3 (Ref.eq),5.11892,P,ugm-3,14.17928,P,ugm-3,22.02818,P,ugm-3
07-01-2024,24:00,19.324,P,ugm-3 (Ref.eq),4.10861,P,ugm-3,10.20893,P,ugm-3,16.50870,P,ugm-3
08-01-2024,01:00,19.324,P,ugm-3 (Ref.eq),4.26577,P,ugm-3,8.70825,P,ugm-3,15.24900,P,ugm-3
08-01-2024,02:00,8.696,P,ugm-3 (Ref.eq),1.21238,P,ugm-3,5.16885,P,ugm-3,7.02780,P,ugm-3
08-01-2024,03:00,10.628,P,ugm-3 (Ref.eq),1.68386,P,ugm-3,5.92110,P,ugm-3,8.50298,P,ugm-3
08-01-2024,04:00,6.763,P,ugm-3 (Ref.eq),1.14502,P,ugm-3,6.20033,P,ugm-3,7.95600,P,ugm-3
08-01-2024,05:00,7.730,P,ugm-3 (Ref.eq),1.75121,P,ugm-3,6.71288,P,ugm-3,9.39803,P,ugm-3
08-01-2024,06:00,17.392,P,ugm-3 (Ref.eq),4.37802,P,ugm-3,14.37053,P,ugm-3,21.08340,P,ugm-3
08-01-2024,07:00,29.952,P,ugm-3 (Ref.eq),12.56156,P,ugm-3,23.05519,P,ugm-3,42.31598,P,ugm-3
08-01-2024,08:00,30.918,P,ugm-3 (Ref.eq),32.56576,P,ugm-3,45.63799,P,ugm-3,95.57145,P,ugm-3
08-01-2024,09:00,45.411,P,ugm-3 (Ref.eq),37.95409,P,ugm-3,53.98414,P,ugm-3,112.17960,P,ugm-3
08-01-2024,10:00,34.783,P,ugm-3 (Ref.eq),22.52998,P,ugm-3,39.79339,P,ugm-3,74.33888,P,ugm-3
08-01-2024,11:00,32.851,P,ugm-3 (Ref.eq),14.11071,P,ugm-3,31.42046,P,ugm-3,53.05658,P,ugm-3
08-01-2024,12:00,32.851,P,ugm-3 (Ref.eq),13.50452,P,ugm-3,31.05709,P,ugm-3,51.76373,P,ugm-3
08-01-2024,13:00,32.851,P,ugm-3 (Ref.eq),11.38286,P,ugm-3,27.84600,P,ugm-3,45.29948,P,ugm-3
08-01-2024,14:00,23.189,P,ugm-3 (Ref.eq),11.95537,P,ugm-3,28.21129,P,ugm-3,46.54260,P,ugm-3
08-01-2024,15:00,30.918,P,ugm-3 (Ref.eq),14.31277,P,ugm-3,27.62989,P,ugm-3,49.57583,P,ugm-3
08-01-2024,16:00,28.986,P,ugm-3 (Ref.eq),21.45231,P,ugm-3,32.69419,P,ugm-3,65.58728,P,ugm-3
08-01-2024,17:00,28.986,P,ugm-3 (Ref.eq),17.81519,P,ugm-3,34.74056,P,ugm-3,62.05680,P,ugm-3
08-01-2024,18:00,22.223,P,ugm-3 (Ref.eq),15.72721,P,ugm-3,29.24021,P,ugm-3,53.35493,P,ugm-3
08-01-2024,19:00,16.425,P,ugm-3 (Ref.eq),10.30519,P,ugm-3,22.78553,P,ugm-3,38.58660,P,ugm-3
08-01-2024,20:00,16.425,P,ugm-3 (Ref.eq),9.09282,P,ugm-3,24.99255,P,ugm-3,38.93468,P,ugm-3
08-01-2024,21:00,9.662,P,ugm-3 (Ref.eq),7.50999,P,ugm-3,21.99949,P,ugm-3,33.51465,P,ugm-3
08-01-2024,22:00,11.594,P,ugm-3 (Ref.eq),3.97390,P,ugm-3,16.03440,P,ugm-3,22.12763,P,ugm-3
08-01-2024,23:00,10.628,P,ugm-3 (Ref.eq),4.37802,P,ugm-3,16.45898,P,ugm-3,23.17185,P,ugm-3
08-01-2024,24:00,11.594,P,ugm-3 (Ref.eq),1.91960,P,ugm-3,12.86921,P,ugm-3,15.81255,P,ugm-3
09-01-2024,01:00,10.628,P,ugm-3 (Ref.eq),1.75121,P,ugm-3,12.43125,P,ugm-3,15.11640,P,ugm-3
09-01-2024,02:00,10.628,P,ugm-3 (Ref.eq),0.94296,P,ugm-3,7.40520,P,ugm-3,8.85105,P,ugm-3
09-01-2024,03:00,11.594,P,ugm-3 (Ref.eq),0.97664,P,ugm-3,7.95026,P,ugm-3,9.44775,P,ugm-3
09-01-2024,04:00,11.594,P,ugm-3 (Ref.eq),0.67354,P,ugm-3,5.38178,P,ugm-3,6.41453,P,ugm-3
09-01-2024,05:00,17.392,P,ugm-3 (Ref.eq),0.90928,P,ugm-3,8.55079,P,ugm-3,9.94500,P,ugm-3
09-01-2024,06:00,17.392,P,ugm-3 (Ref.eq),2.15533,P,ugm-3,8.97728,P,ugm-3,12.28208,P,ugm-3
09-01-2024,07:00,22.223,P,ugm-3 (Ref.eq),4.41170,P,ugm-3,11.93209,P,ugm-3,18.69660,P,ugm-3
09-01-2024,08:00,33.817,P,ugm-3 (Ref.eq),9.12649,P,ugm-3,19.17281,P,ugm-3,33.16658,P,ugm-3
09-01-2024,09:00,34.783,P,ugm-3 (Ref.eq),15.05366,P,ugm-3,19.93016,P,ugm-3,43.01213,P,ugm-3
09-01-2024,10:00,36.716,P,ugm-3 (Ref.eq),12.29214,P,ugm-3,26.20316,P,ugm-3,45.05085,P,ugm-3
09-01-2024,11:00,29.952,P,ugm-3 (Ref.eq),8.04883,P,ugm-3,19.28374,P,ugm-3,31.62510,P,ugm-3
09-01-2024,12:00,33.817,P,ugm-3 (Ref.eq),10.00210,P,ugm-3,18.52639,P,ugm-3,33.86273,P,ugm-3
09-01-2024,13:00,28.986,P,ugm-3 (Ref.eq),9.56430,P,ugm-3,17.55675,P,ugm-3,32.22180,P,ugm-3
09-01-2024,14:00,22.223,P,ugm-3 (Ref.eq),9.76636,P,ugm-3,17.54528,P,ugm-3,32.52015,P,ugm-3
09-01-2024,15:00,30.918,P,ugm-3 (Ref.eq),11.24815,P,ugm-3,19.05233,P,ugm-3,36.29925,P,ugm-3
09-01-2024,16:00,28.986,P,ugm-3 (Ref.eq),17.27635,P,ugm-3,30.24619,P,ugm-3,56.73623,P,ugm-3
09-01-2024,17:00,27.054,P,ugm-3 (Ref.eq),16.43443,P,ugm-3,40.13955,P,ugm-3,65.33865,P,ugm-3
09-01-2024,18:00,22.223,P,ugm-3 (Ref.eq),12.69627,P,ugm-3,27.27416,P,ugm-3,46.74150,P,ugm-3
09-01-2024,19:00,23.189,P,ugm-3 (Ref.eq),10.20416,P,ugm-3,22.04539,P,ugm-3,37.69155,P,ugm-3
09-01-2024,20:00,18.358,P,ugm-3 (Ref.eq),5.89349,P,ugm-3,17.01934,P,ugm-3,26.05590,P,ugm-3
09-01-2024,21:00,17.392,P,ugm-3 (Ref.eq),5.42201,P,ugm-3,13.31674,P,ugm-3,21.63038,P,ugm-3
09-01-2024,22:00,11.594,P,ugm-3 (Ref.eq),4.37802,P,ugm-3,11.98373,P,ugm-3,18.69660,P,ugm-3
09-01-2024,23:00,12.561,P,ugm-3 (Ref.eq),2.76152,P,ugm-3,9.19148,P,ugm-3,13.42575,P,ugm-3
09-01-2024,24:00,14.493,P,ugm-3 (Ref.eq),2.79520,P,ugm-3,8.99066,P,ugm-3,13.27658,P,ugm-3
10-01-2024,01:00,13.527,P,ugm-3 (Ref.eq),3.49244,P,ugm-3,7.31786,P,ugm-3,12.67286,P,ugm-3
10-01-2024,02:00,13.527,P,ugm-3 (Ref.eq),2.27009,P,ugm-3,5.43293,P,ugm-3,8.91368,P,ugm-3
10-01-2024,03:00,9.662,P,ugm-3 (Ref.eq),2.96857,P,ugm-3,4.06645,P,ugm-3,8.61820,P,ugm-3
10-01-2024,04:00,10.628,P,ugm-3 (Ref.eq),2.27009,P,ugm-3,4.30026,P,ugm-3,7.78101,P,ugm-3
10-01-2024,05:00,11.594,P,ugm-3 (Ref.eq),2.37486,P,ugm-3,3.79488,P,ugm-3,7.43628,P,ugm-3
10-01-2024,06:00,7.730,P,ugm-3 (Ref.eq),2.93365,P,ugm-3,4.61247,P,ugm-3,9.11067,P,ugm-3
10-01-2024,07:00,8.696,P,ugm-3 (Ref.eq),4.40047,P,ugm-3,8.76547,P,ugm-3,15.51277,P,ugm-3
10-01-2024,08:00,7.730,P,ugm-3 (Ref.eq),9.74391,P,ugm-3,14.65692,P,ugm-3,29.59737,P,ugm-3
10-01-2024,09:00,10.628,P,ugm-3 (Ref.eq),13.65544,P,ugm-3,19.00117,P,ugm-3,39.93922,P,ugm-3
10-01-2024,10:00,,,,22.72414,P,ugm-3,27.66750,P,ugm-3,62.51070,P,ugm-3
10-01-2024,11:00,18.358,P,ugm-3 (Ref.eq),17.81144,P,ugm-3,21.78863,P,ugm-3,49.09913,P,ugm-3
10-01-2024,12:00,11.594,P,ugm-3 (Ref.eq),14.21423,P,ugm-3,19.86801,P,ugm-3,41.66286,P,ugm-3
10-01-2024,13:00,16.425,P,ugm-3 (Ref.eq),11.10596,P,ugm-3,14.88308,P,ugm-3,31.91198,P,ugm-3
10-01-2024,14:00,8.696,P,ugm-3 (Ref.eq),14.17931,P,ugm-3,18.98587,P,ugm-3,40.72717,P,ugm-3
10-01-2024,15:00,12.561,P,ugm-3 (Ref.eq),12.99188,P,ugm-3,18.39347,P,ugm-3,38.31407,P,ugm-3
10-01-2024,16:00,9.662,P,ugm-3 (Ref.eq),17.81144,P,ugm-3,21.78863,P,ugm-3,49.09913,P,ugm-3
10-01-2024,17:00,9.662,P,ugm-3 (Ref.eq),20.15138,P,ugm-3,27.70543,P,ugm-3,58.60378,P,ugm-3
10-01-2024,18:00,13.527,P,ugm-3 (Ref.eq),28.32369,P,ugm-3,36.84336,P,ugm-3,80.27241,P,ugm-3
10-01-2024,19:00,11.594,P,ugm-3 (Ref.eq),21.16419,P,ugm-3,34.08123,P,ugm-3,66.53253,P,ugm-3
10-01-2024,20:00,8.696,P,ugm-3 (Ref.eq),18.33531,P,ugm-3,27.48597,P,ugm-3,55.59972,P,ugm-3
10-01-2024,21:00,7.730,P,ugm-3 (Ref.eq),7.08965,P,ugm-3,16.80609,P,ugm-3,27.67674,P,ugm-3
10-01-2024,22:00,4.831,P,ugm-3 (Ref.eq),4.47032,P,ugm-3,14.51874,P,ugm-3,21.37314,P,ugm-3
10-01-2024,23:00,6.763,P,ugm-3 (Ref.eq),4.19093,P,ugm-3,13.02652,P,ugm-3,19.45252,P,ugm-3
10-01-2024,24:00,6.763,P,ugm-3 (Ref.eq),2.61933,P,ugm-3,8.24622,P,ugm-3,12.26247,P,ugm-3
11-01-2024,01:00,6.763,P,ugm-3 (Ref.eq),1.39698,P,ugm-3,4.35859,P,ugm-3,6.50059,P,ugm-3
11-01-2024,02:00,7.730,P,ugm-3 (Ref.eq),1.39698,P,ugm-3,3.61988,P,ugm-3,5.76188,P,ugm-3
11-01-2024,03:00,7.730,P,ugm-3 (Ref.eq),1.11758,P,ugm-3,2.96485,P,ugm-3,4.67845,P,ugm-3
11-01-2024,04:00,7.730,P,ugm-3 (Ref.eq),0.80326,P,ugm-3,2.56036,P,ugm-3,3.79201,P,ugm-3
11-01-2024,05:00,8.696,P,ugm-3 (Ref.eq),1.04773,P,ugm-3,3.51518,P,ugm-3,5.12168,P,ugm-3
11-01-2024,06:00,7.730,P,ugm-3 (Ref.eq),2.68918,P,ugm-3,8.38536,P,ugm-3,12.50871,P,ugm-3
11-01-2024,07:00,7.730,P,ugm-3 (Ref.eq),7.15950,P,ugm-3,15.41858,P,ugm-3,26.39633,P,ugm-3
11-01-2024,08:00,10.628,P,ugm-3 (Ref.eq),20.67525,P,ugm-3,33.30428,P,ugm-3,65.00588,P,ugm-3
11-01-2024,09:00,9.662,P,ugm-3 (Ref.eq),31.22241,P,ugm-3,38.06210,P,ugm-3,85.93580,P,ugm-3
11-01-2024,10:00,9.662,P,ugm-3 (Ref.eq),22.45639,P,ugm-3,28.25862,P,ugm-3,62.69127,P,ugm-3
11-01-2024,11:00,7.730,P,ugm-3 (Ref.eq),12.78233,P,ugm-3,18.71477,P,ugm-3,38.31407,P,ugm-3
11-01-2024,12:00,9.662,P,ugm-3 (Ref.eq),15.29689,P,ugm-3,19.63612,P,ugm-3,43.09102,P,ugm-3
11-01-2024,13:00,6.763,P,ugm-3 (Ref.eq),14.91272,P,ugm-3,19.33872,P,ugm-3,42.20457,P,ugm-3
11-01-2024,14:00,15.459,P,ugm-3 (Ref.eq),11.76952,P,ugm-3,16.57420,P,ugm-3,34.62055,P,ugm-3
11-01-2024,15:00,21.256,P,ugm-3 (Ref.eq),20.71017,P,ugm-3,24.58328,P,ugm-3,56.33843,P,ugm-3
11-01-2024,16:00,18.358,P,ugm-3 (Ref.eq),17.63682,P,ugm-3,32.54597,P,ugm-3,59.58872,P,ugm-3
11-01-2024,17:00,18.358,P,ugm-3 (Ref.eq),18.12576,P,ugm-3,37.60740,P,ugm-3,65.39985,P,ugm-3
11-01-2024,18:00,16.425,P,ugm-3 (Ref.eq),25.52974,P,ugm-3,41.86606,P,ugm-3,81.01111,P,ugm-3
11-01-2024,19:00,14.493,P,ugm-3 (Ref.eq),21.75790,P,ugm-3,37.20912,P,ugm-3,70.57077,P,ugm-3
11-01-2024,20:00,16.425,P,ugm-3 (Ref.eq),13.13157,P,ugm-3,27.14220,P,ugm-3,47.27700,P,ugm-3
11-01-2024,21:00,9.662,P,ugm-3 (Ref.eq),7.54367,P,ugm-3,19.26174,P,ugm-3,30.82854,P,ugm-3